Other Public Products
Issued by NWS Grand Forks, ND

Home | Current Version | Previous Version | Graphics & Text | Print | Product List | Glossary On
Versions: 1 2 3 4 5 6 7 8 9 10 11 12 13 14 15 16 17 18 19 20 21 22 23 24 25 26 27 28 29 30 31 32 33 34 35 36 37 38 39 40 41 42 43 44 45 46 47 48 49 50
000
FPUS83 KFGF 211131
OPUFGF
PRAIRIE TO PINES WEATHER ROUNDUP
NATIONAL WEATHER SERVICE EASTERN NORTH DAKOTA/GRAND FORKS ND
500 AM CST SUN DEC 21 2014

 **SATELLITE DATA USED TO AUGMENT SKY COVER AT AUTOMATED STATIONS**
 *****  WEATHER ACROSS EASTERN NORTH DAKOTA  *****

CITY           SKY/WX    TMP DP  RH WIND       PRES   REMARKS
GRAND FORKS    CLOUDY    30  28  92 S14       29.73F WCI  19
GRAND FORKS AF CLOUDY    29  29 100 SW14      29.73F WCI  18
GRAND CITY NWS   N/A     30 N/A N/A S28         N/A  WCI  16
BUXTON           N/A     31  30  98 S9          N/A  WCI  22
DEVILS LAKE    CLEAR     19  12  73 S7        29.64F WCI  10
FARGO          CLOUDY    32  29  88 S13       29.78F WCI  22
WAHPETON ARPT  CLOUDY    32  28  86 S13       29.81F WCI  22
$$

 *****  WEATHER ACROSS CENTRAL AND WESTERN NORTH DAKOTA  *****

CITY           SKY/WX    TMP DP  RH WIND       PRES   REMARKS
JAMESTOWN      CLEAR     22  18  85 S12       29.70F WCI  10
BISMARCK       CLEAR     13  11  92 NE6       29.68F WCI   4
MINOT          CLEAR     20  17  88 CALM      29.60F
MINOT AFB      CLEAR     19  19  98 SW3       29.60F
GARRISON         N/A     22  20  92 SE6       29.61F WCI  14
WILLISTON      CLEAR     16  13  88 CALM      29.56F
DICKINSON      CLEAR     27  21  78 S13       29.57F WCI  16
HETTINGER      CLEAR     28  22  78 SE5       29.62F WCI  23
$$

 *****  OTHER OBSERVATIONS NORTHEAST NORTH DAKOTA  *****

CITY           SKY/WX    TMP DP  RH WIND       PRES   REMARKS
WALHALLA         N/A     28  28 100 S7        29.68F WCI  21
LANGDON        CLOUDY    27  27 100 N5        29.64F FOG     WCI  21
CAVALIER       CLOUDY    28  28 100 S12       29.69F FOG     WCI  18
GRAFTON        NOT AVBL
CANDO          FAIR      21  19  93 S6        29.65F WCI  14
FORT TOTTEN      N/A     20  18  93 SE2       29.95S
ROLLA          FOG       25  25 100 MISG      29.62F VSB<1/4
RUGBY          FAIR      19  19 100 S5        29.63F WCI  13
 ***** THE ABOVE OBSERVATIONS ARE NON NWS ARE NOT QUALITY
        CONTROLLED AND MAY MIS-REPORT RAIN FOR SNOW...
$$

 *****  OTHER OBSERVATIONS SOUTHEAST NORTH DAKOTA *****

CITY           SKY/WX    TMP DP  RH WIND       PRES   REMARKS
COOPERSTOWN    NOT AVBL
VALLEY CITY    FOG       27  27 100 S12       29.72F VSB 1   WCI  16
OAKES            N/A     28  28 100 S13       29.75F FOG     WCI  18
GWINNER        CLOUDY    32  32 100 MISG      29.76F
SHEYENNE NWR     N/A     31  29  94 S9        29.95  WCI  23
BUFFALO        NOT AVBL
WYNDMERE         N/A     30  30 100 S7          N/A  WCI  23
 ***** THE ABOVE OBSERVATIONS ARE NON NWS ARE NOT QUALITY
       CONTROLLED AND MAY MIS-REPORT RAIN FOR SNOW...
$$

  *****  WEATHER ACROSS NORTHERN MINNESOTA  *****

CITY           SKY/WX    TMP DP  RH WIND       PRES   REMARKS
FLAG ISLAND    DRIZZLE   28  27  93 SE20      29.76F WCI  15
WARROAD        LGT SNOW  30  27  86 S9        29.77F WCI  22
ROSEAU         LGT SNOW  30  27  86 S15       29.75F WCI  19
HALLOCK        CLOUDY    30  30 100 CALM      29.71F FOG
THF RVR FALLS  CLOUDY    30  28  93 S16       29.76F WCI  19
HALSTAD          N/A     31  28  90 S16         N/A  WCI  20
FOSSTON        CLOUDY    27  27 100 S18       29.78F FOG     WCI  13
BAUDETTE       LGT SNOW  29  26  89 S8        29.79F VSB 1   WCI  21
WASKISH        CLOUDY    28  27  93 CALM      29.82S FOG
CROOKSTON      CLOUDY    30  30 100 S16       29.77F FOG     WCI  19
$$
  *****  WEATHER ACROSS CENTRAL AND WEST MINNESOTA  *****

CITY           SKY/WX    TMP DP  RH WIND       PRES   REMARKS
BEMIDJI        CLOUDY    28  28  96 S12G18    29.80S FOG     WCI  18
PARK RAPIDS    CLOUDY    30  28  92 S13       29.82F FOG     WCI  20
WADENA         CLOUDY    28  28 100 S12       29.83S FOG     WCI  18
DETROIT LAKES  CLOUDY    30  30 100 S14       29.80F FOG     WCI  20
MOORHEAD       CLOUDY    32  32 100 S10       29.80F FOG     WCI  24
FERGUS FALLS   CLOUDY    30  28  93 S15       29.84F FOG     WCI  19
ELBOW LAKE     CLOUDY    30  29  98 S16       29.81F FOG     WCI  18
MORRIS MN      CLOUDY    30  30 100 S15       29.81F FOG     WCI  19
STAPLES        CLOUDY    28  28 100 S14       29.83F FOG     WCI  17
WHEATON        CLOUDY    28  27  93 S8        29.84S FOG     WCI  20
$$
  *****  WEATHER ELSEWHERE ACROSS MINNESOTA  *****

CITY           SKY/WX    TMP DP  RH WIND       PRES   REMARKS
DULUTH         FRZ DRZL  29  26  89 S10       29.92F WCI  20
INTRNTL FALLS  CLOUDY    28  25  88 SE6       29.84F WCI  22
ELY            CLOUDY    28  27  93 S9        29.91F FOG     WCI  20
CLOQUET        CLOUDY    28  27  93 SE6       29.91F WCI  22
BRAINERD       CLOUDY    29  28  96 S15       29.88F FOG     WCI  18
HIBBING        CLOUDY    29  25  85 S8        29.89F WCI  21
ALEXANDRIA     CLOUDY    30  28  92 S17       29.83F WCI  18
SAINT CLOUD    CLOUDY    33  29  85 S15       29.89F FOG     WCI  23
MINNEAPOLIS    CLOUDY    32  29  88 SE10      29.95F WCI  24
$$

  *****  WEATHER ACROSS SOUTH DAKOTA  *****

CITY           SKY/WX    TMP DP  RH WIND       PRES   REMARKS
SIOUX FALLS    FOG       31  31 100 S13       29.81F VSB 3/4 WCI  21
BROOKINGS      NOT AVBL
WATERTOWN      CLOUDY    29  28  96 S13       29.78F FOG     WCI  19
HURON          CLOUDY    31  30  96 S10       29.78F FOG     WCI  22
SISSETON         N/A     30  29  96 S13       29.79F WCI  20
ABERDEEN       CLOUDY    30  29  96 S10       29.78F FOG     WCI  21
MITCHELL       CLOUDY    31  31 100 S10       29.81F FOG     WCI  22
PIERRE         PTCLDY    23  22  96 E8        29.70F WCI  14
MOBRIDGE       CLOUDY    27  24  89 SE9       29.67F WCI  18
RAPID CITY     CLEAR     23  20  88 CALM      29.63F
$$

  *****  SOME WEATHER IN NEARBY STATES *****

CITY           SKY/WX    TMP DP  RH WIND       PRES   REMARKS
GLASGOW MT     CLEAR     23  18  81 E13       29.47F WCI  11
GREAT FALLS MT MOCLDY    41  30  65 SW16      29.36F
CHEYENNE WY    PTCLDY    37  19  48 W20G28    29.76F
SCOTTSBLUFF NE CLEAR     21  16  81 E6        29.74F WCI  13
OMAHA NE       CLOUDY    37  35  92 S10       29.94F FOG
DES MOINES IA  CLOUDY    38  34  85 S13       30.01F
DAVENPORT IA   CLOUDY    35  31  85 S12       30.13F
CHICAGO IL     CLOUDY    32  27  81 S7        30.21S
EAU CLAIRE WI  CLOUDY    31  27  85 SE12      30.02F WCI  22
LA CROSSE WI   CLOUDY    34  30  85 S7        30.06F FOG
$$

  *****  SOME NATIONAL WEATHER *****

CITY           SKY/WX    TMP DP  RH WIND       PRES   REMARKS
LA GUARDIA NY  CLOUDY    32  25  75 VRB3      30.28R
RALEIGH NC     CLOUDY    38  34  85 CALM      30.27R FOG
ATLANTA GA     CLOUDY    47  43  86 NE7       30.19S FOG
NEW ORLEANS LA CLOUDY    53  47  79 E8        30.10F
OKLAHOMA CITY  CLOUDY    43  38  82 S10       30.03F
ALBUQUERQUE NM PTCLDY    30  24  78 CALM      30.07S
SALT LAKE CITY LGT RAIN  41  35  79 S8        29.99S
LOS ANGELES CA PTCLDY    54  47  77 NE7       30.13F
BOISE ID       CLOUDY    42  39  89 SE8       29.84F
SEATTLE WA     CLOUDY    51  45  79 SW16G23   29.72R
$$

*** WEATHER ACROSS MANITOBA...SASKATCHEWAN AND ONTARIO ***
                ***ONTARIO***

CITY           SKY/WX    TMP DP  RH WIND       PRES   REMARKS
GERALDTON      CLOUDY    27  25  93 SE6       30.03F WCI  20
THUNDER BAY    CLOUDY    32  28  86 S5        30.02F
SIOUX LOOKOUT  LGT SNOW  28  25  86 S9        29.85  FOG     WCI  20
TORONTO        MOCLDY    27  21  80 W3        30.28S
BIG TROUT LK   CLOUDY    25  25 100 S9        29.89F WCI  15
PICKLE LAKE    FRZ DRZL  28  25  86 S9        29.88  WCI  20
DRYDEN         LGT SNOW  27  27 100 S10       29.83F WCI  17
KENORA         FLURRIES  27  27 100 S12       29.79  WCI  16
$$
                *** MANITOBA***

CITY           SKY/WX    TMP DP  RH WIND       PRES   REMARKS
BRANDON        CLOUDY    27  25  93 E3        29.63F FOG
DAUPHIN        CLOUDY    25  23  93 SE3       29.62F
ISLAND LAKE    FLURRIES  25  23  93 SE7       29.77F WCI  17
PILOT MOUND      N/A     27  25  93 CALM        N/A
THE PAS        FOG       23  21  93 SE7       29.63F VSB 1   WCI  15
THOMPSON       FLURRIES  18  16  93 CALM      29.72F
WINNIPEG       FRZ DRZL  30  28  93 S16G24    29.71F FOG     WCI  19
LYNN LAKE      CLOUDY    12  12 100 S5        29.65S FOG     WCI   4
CHURCHILL      FLURRIES  19  18  93 SW10      29.76S WCI   8
GILLAM         FRZ DRZL  23  19  86 SW8       29.77F WCI  14
$$
                ***SASKATCHEWAN***

CITY           SKY/WX    TMP DP  RH WIND       PRES   REMARKS
ESTEVAN        CLEAR     12   9  85 E3        29.56F
KINDERSLEY     PTCLDY    16  12  86 E6        29.35  WCI   7
LLOYDMINSTER   LGT SNOW  14  12  92 SE12      29.36F VSB 1   WCI   0
PRINCE ALBERT  LGT SNOW  21  19  93 E2        29.52  VSB 3/4
REGINA         MOCLDY    14  12  92 E9        29.51F WCI   2



USA.gov is the U.S. government's official web portal to all federal, state and local government web resources and services.